SZN207 GVNP-GOBD

Flight info

Callsign SZN207
Flight time 1h 5m
Altitude 35000
Route MILPU1N SONVA DCT MOGSA DCT PIVSA PIVSA1D
Aircraft B738/M-SDE2E3FGHIRWXY/LB1

Departure

Time 2026-04-25 15:45
Airport Nelson Mandela International Airport (GVNP)

Arrival

Time 2026-04-25 16:50
Airport Blaise Diagne International Airport (GOBD)
Time Latitude Longitude Altitude Speed Heading
2026-04-25 15:18 14.94482 -23.48561 335 ft 0 kts 292°
2026-04-25 15:36 14.94482 -23.48560 338 ft 2 kts 292°
2026-04-25 15:36 14.94475 -23.48546 334 ft 2 kts 280°
2026-04-25 15:37 14.94474 -23.48522 339 ft 4 kts 256°
2026-04-25 15:37 14.94480 -23.48501 351 ft 2 kts 252°
2026-04-25 15:37 14.94481 -23.48497 350 ft 1 kts 252°
2026-04-25 15:40 14.94478 -23.48499 345 ft 1 kts 214°
2026-04-25 15:40 14.94462 -23.48505 350 ft 6 kts 200°
2026-04-25 15:40 14.94381 -23.48516 339 ft 11 kts 153°
2026-04-25 15:40 14.94344 -23.48450 339 ft 11 kts 111°
2026-04-25 15:41 14.94296 -23.48402 339 ft 10 kts 176°
2026-04-25 15:41 14.94226 -23.48424 337 ft 11 kts 201°
2026-04-25 15:41 14.94147 -23.48457 336 ft 14 kts 201°
2026-04-25 15:41 14.94038 -23.48501 348 ft 20 kts 202°
2026-04-25 15:42 14.93890 -23.48563 335 ft 26 kts 202°
2026-04-25 15:42 14.93704 -23.48639 337 ft 30 kts 201°
2026-04-25 15:42 14.93510 -23.48718 330 ft 29 kts 201°
2026-04-25 15:42 14.93374 -23.48776 330 ft 16 kts 202°
2026-04-25 15:43 14.93298 -23.48822 327 ft 10 kts 227°
2026-04-25 15:43 14.93250 -23.48832 327 ft 4 kts 99°
2026-04-25 15:43 14.93268 -23.48817 328 ft 0 kts 21°
2026-04-25 15:44 14.93461 -23.48739 332 ft 66 kts 21°
2026-04-25 15:44 14.94100 -23.48476 340 ft 130 kts 22°
2026-04-25 15:44 14.95093 -23.48069 524 ft 168 kts 21°
2026-04-25 15:45 14.96162 -23.47667 1463 ft 163 kts 18°
2026-04-25 15:45 14.97260 -23.47270 2108 ft 181 kts 20°
2026-04-25 15:45 14.98529 -23.46727 2391 ft 212 kts 21°
2026-04-25 15:45 14.99480 -23.46315 2632 ft 223 kts 21°
2026-04-25 15:46 15.01473 -23.45464 3110 ft 251 kts 22°
2026-04-25 15:46 15.02954 -23.44436 3755 ft 263 kts 45°
2026-04-25 15:46 15.04013 -23.42879 4626 ft 269 kts 63°
2026-04-25 15:46 15.04746 -23.41058 5295 ft 279 kts 74°
2026-04-25 15:47 15.04775 -23.39058 6123 ft 288 kts 105°
2026-04-25 15:47 15.04155 -23.37149 7322 ft 276 kts 109°
2026-04-25 15:47 15.03535 -23.35257 8138 ft 280 kts 108°
2026-04-25 15:47 15.02925 -23.33327 8903 ft 285 kts 108°
2026-04-25 15:48 15.02327 -23.31362 9594 ft 288 kts 107°
2026-04-25 15:48 15.01740 -23.29374 9949 ft 291 kts 107°
2026-04-25 15:48 15.01162 -23.27386 9985 ft 293 kts 107°
2026-04-25 15:48 15.00579 -23.25377 9995 ft 291 kts 107°
2026-04-25 15:49 14.99993 -23.23353 10087 ft 301 kts 107°
2026-04-25 15:49 14.99367 -23.21193 10283 ft 325 kts 107°
2026-04-25 15:49 14.98700 -23.18900 10747 ft 338 kts 107°
2026-04-25 15:49 14.98017 -23.16551 11454 ft 343 kts 107°
2026-04-25 15:50 14.97327 -23.14178 12215 ft 346 kts 107°
2026-04-25 15:50 14.96631 -23.11784 12948 ft 349 kts 107°
2026-04-25 15:50 14.95928 -23.09366 13644 ft 353 kts 107°
2026-04-25 15:50 14.95215 -23.06917 14335 ft 357 kts 107°
2026-04-25 15:51 14.94496 -23.04451 15012 ft 360 kts 107°
2026-04-25 15:51 14.94015 -23.02797 15452 ft 363 kts 107°
2026-04-25 15:51 14.93035 -22.99435 16325 ft 368 kts 107°
2026-04-25 15:51 14.92292 -22.96888 16947 ft 371 kts 107°
2026-04-25 15:52 14.91540 -22.94313 17575 ft 375 kts 107°
2026-04-25 15:52 14.90785 -22.91725 18178 ft 378 kts 107°
2026-04-25 15:52 14.90021 -22.89112 18764 ft 381 kts 107°
2026-04-25 15:52 14.89260 -22.86508 19326 ft 385 kts 107°
2026-04-25 15:53 14.88484 -22.83851 19893 ft 388 kts 107°
2026-04-25 15:53 14.87699 -22.81167 20435 ft 391 kts 107°
2026-04-25 15:53 14.86935 -22.78459 20965 ft 394 kts 103°
2026-04-25 15:53 14.86599 -22.75634 21469 ft 397 kts 93°
2026-04-25 15:54 14.86488 -22.72769 21985 ft 400 kts 91°
2026-04-25 15:54 14.86416 -22.69880 22463 ft 404 kts 91°
2026-04-25 15:54 14.86341 -22.66962 22935 ft 407 kts 91°
2026-04-25 15:54 14.86250 -22.64031 23397 ft 409 kts 92°
2026-04-25 15:55 14.86141 -22.61080 23848 ft 412 kts 92°
2026-04-25 15:55 14.86020 -22.58103 24286 ft 415 kts 92°
2026-04-25 15:55 14.85890 -22.55108 24710 ft 418 kts 92°
2026-04-25 15:55 14.85755 -22.52098 25131 ft 421 kts 92°
2026-04-25 15:56 14.85617 -22.49067 25523 ft 423 kts 92°
2026-04-25 15:56 14.85478 -22.46023 25915 ft 426 kts 92°
2026-04-25 15:56 14.85338 -22.42955 26291 ft 428 kts 92°
2026-04-25 15:56 14.85197 -22.39872 26659 ft 431 kts 92°
2026-04-25 15:57 14.85055 -22.36769 27018 ft 433 kts 92°
2026-04-25 15:57 14.84912 -22.33651 27363 ft 435 kts 92°
2026-04-25 15:57 14.84769 -22.30560 27699 ft 438 kts 92°
2026-04-25 15:57 14.84624 -22.27410 28028 ft 440 kts 92°
2026-04-25 15:58 14.84477 -22.24242 28349 ft 442 kts 92°
2026-04-25 15:58 14.84329 -22.21059 28662 ft 444 kts 92°
2026-04-25 15:58 14.84180 -22.17860 28972 ft 446 kts 92°
2026-04-25 15:58 14.84029 -22.14641 29259 ft 448 kts 92°
2026-04-25 15:59 14.83877 -22.11411 29545 ft 450 kts 92°
2026-04-25 15:59 14.83725 -22.08171 29817 ft 452 kts 92°
2026-04-25 15:59 14.83541 -22.04915 30086 ft 454 kts 94°
2026-04-25 15:59 14.83306 -22.01651 30348 ft 456 kts 94°
2026-04-25 16:00 14.83055 -21.98478 30592 ft 458 kts 95°
2026-04-25 16:00 14.82968 -21.97412 30675 ft 458 kts 95°
2026-04-25 16:00 14.82523 -21.91911 31236 ft 457 kts 95°
2026-04-25 16:00 14.82267 -21.88681 31609 ft 455 kts 94°
2026-04-25 16:01 14.82011 -21.85423 31930 ft 455 kts 94°
2026-04-25 16:01 14.81759 -21.82166 32225 ft 455 kts 94°
2026-04-25 16:01 14.81508 -21.78913 32519 ft 454 kts 94°
2026-04-25 16:01 14.81257 -21.75661 32835 ft 453 kts 94°
2026-04-25 16:02 14.81007 -21.72410 33140 ft 453 kts 94°
2026-04-25 16:02 14.80756 -21.69169 33429 ft 452 kts 94°
2026-04-25 16:02 14.80506 -21.65936 33701 ft 452 kts 94°
2026-04-25 16:02 14.80255 -21.62704 33972 ft 451 kts 94°
2026-04-25 16:03 14.80004 -21.59467 34221 ft 451 kts 94°
2026-04-25 16:03 14.79751 -21.56225 34433 ft 452 kts 94°
2026-04-25 16:03 14.79498 -21.52987 34676 ft 452 kts 94°
2026-04-25 16:03 14.79245 -21.49751 34948 ft 451 kts 94°
2026-04-25 16:04 14.78740 -21.43309 35007 ft 455 kts 94°
2026-04-25 16:04 14.78227 -21.36803 34987 ft 452 kts 94°
2026-04-25 16:05 14.77718 -21.30367 35005 ft 448 kts 94°
2026-04-25 16:06 14.76955 -21.20754 35007 ft 447 kts 94°
2026-04-25 16:06 14.76445 -21.14359 35004 ft 447 kts 94°
2026-04-25 16:07 14.75933 -21.07951 35004 ft 447 kts 95°
2026-04-25 16:07 14.75505 -21.02622 35006 ft 448 kts 95°
2026-04-25 16:08 14.74911 -20.95246 35000 ft 449 kts 95°
2026-04-25 16:08 14.74390 -20.88808 34999 ft 450 kts 95°
2026-04-25 16:09 14.73867 -20.82355 34999 ft 451 kts 95°
2026-04-25 16:09 14.73429 -20.76984 35004 ft 452 kts 95°
2026-04-25 16:10 14.72901 -20.70515 34998 ft 452 kts 95°
2026-04-25 16:10 14.72371 -20.64044 34998 ft 452 kts 95°
2026-04-25 16:11 14.71838 -20.57559 35002 ft 452 kts 95°
2026-04-25 16:11 14.71303 -20.51084 35000 ft 452 kts 95°
2026-04-25 16:12 14.70767 -20.44610 35010 ft 452 kts 95°
2026-04-25 16:12 14.70230 -20.38152 35001 ft 451 kts 95°
2026-04-25 16:13 14.69691 -20.31697 34998 ft 450 kts 95°
2026-04-25 16:13 14.69154 -20.25291 35009 ft 450 kts 95°
2026-04-25 16:14 14.68228 -20.18913 35001 ft 449 kts 107°
2026-04-25 16:14 14.66257 -20.12789 35003 ft 449 kts 109°
2026-04-25 16:15 14.64236 -20.06693 35000 ft 449 kts 109°
2026-04-25 16:15 14.62243 -20.00578 35005 ft 449 kts 108°
2026-04-25 16:16 14.60298 -19.94538 35009 ft 449 kts 108°
2026-04-25 16:16 14.58332 -19.88412 34996 ft 449 kts 108°
2026-04-25 16:17 14.56366 -19.82289 35002 ft 449 kts 108°
2026-04-25 16:17 14.54396 -19.76164 35005 ft 450 kts 108°
2026-04-25 16:18 14.52424 -19.70039 34998 ft 450 kts 108°
2026-04-25 16:18 14.50446 -19.63901 35007 ft 450 kts 108°
2026-04-25 16:19 14.48479 -19.57804 35007 ft 450 kts 108°
2026-04-25 16:19 14.46498 -19.51672 35001 ft 450 kts 108°
2026-04-25 16:20 14.43526 -19.42478 35007 ft 450 kts 108°
2026-04-25 16:21 14.40552 -19.33276 34995 ft 450 kts 107°
2026-04-25 16:21 14.39908 -19.30122 34998 ft 450 kts 96°
2026-04-25 16:21 14.39796 -19.26907 35001 ft 450 kts 90°
2026-04-25 16:21 14.39808 -19.23654 34505 ft 456 kts 89°
2026-04-25 16:22 14.39822 -19.20411 34128 ft 450 kts 89°
2026-04-25 16:22 14.39830 -19.17190 33660 ft 446 kts 90°
2026-04-25 16:22 14.39828 -19.14001 33282 ft 441 kts 90°
2026-04-25 16:22 14.39818 -19.10888 33191 ft 428 kts 90°
2026-04-25 16:23 14.39803 -19.07852 33098 ft 417 kts 90°
2026-04-25 16:23 14.39787 -19.04917 32841 ft 411 kts 90°
2026-04-25 16:23 14.39768 -19.01975 32405 ft 409 kts 90°
2026-04-25 16:23 14.39749 -18.99117 31952 ft 408 kts 90°
2026-04-25 16:24 14.39730 -18.96190 31537 ft 406 kts 90°
2026-04-25 16:24 14.39710 -18.93284 31160 ft 404 kts 90°
2026-04-25 16:24 14.39690 -18.90399 30789 ft 401 kts 90°
2026-04-25 16:24 14.39670 -18.87535 30408 ft 398 kts 90°
2026-04-25 16:25 14.39649 -18.84686 30030 ft 396 kts 90°
2026-04-25 16:25 14.39636 -18.82813 29762 ft 392 kts 90°
2026-04-25 16:25 14.39609 -18.79087 29011 ft 386 kts 90°
2026-04-25 16:25 14.39588 -18.76323 28348 ft 384 kts 90°
2026-04-25 16:26 14.39568 -18.73573 27714 ft 382 kts 90°
2026-04-25 16:26 14.39547 -18.70846 27135 ft 378 kts 90°
2026-04-25 16:26 14.39526 -18.68182 26570 ft 374 kts 90°
2026-04-25 16:26 14.39505 -18.65524 26130 ft 367 kts 90°
2026-04-25 16:27 14.39484 -18.62925 25737 ft 358 kts 90°
2026-04-25 16:27 14.39464 -18.60388 25378 ft 350 kts 90°
2026-04-25 16:27 14.39443 -18.57904 25181 ft 342 kts 90°
2026-04-25 16:27 14.39423 -18.55456 24866 ft 341 kts 90°
2026-04-25 16:28 14.39403 -18.53014 24564 ft 340 kts 90°
2026-04-25 16:28 14.39382 -18.50557 24246 ft 347 kts 90°
2026-04-25 16:28 14.39360 -18.48023 23918 ft 358 kts 90°
2026-04-25 16:28 14.39338 -18.45437 23553 ft 359 kts 90°
2026-04-25 16:29 14.39315 -18.42867 23194 ft 356 kts 90°
2026-04-25 16:29 14.39292 -18.40322 22843 ft 354 kts 90°
2026-04-25 16:29 14.39269 -18.37788 22497 ft 351 kts 90°
2026-04-25 16:29 14.39246 -18.35303 22160 ft 349 kts 90°
2026-04-25 16:30 14.39223 -18.32813 21822 ft 346 kts 90°
2026-04-25 16:30 14.39200 -18.30334 21487 ft 344 kts 90°
2026-04-25 16:30 14.39177 -18.27871 21153 ft 342 kts 90°
2026-04-25 16:30 14.39153 -18.25425 20822 ft 339 kts 90°
2026-04-25 16:31 14.39130 -18.22999 20493 ft 337 kts 90°
2026-04-25 16:31 14.39106 -18.20595 20167 ft 335 kts 90°
2026-04-25 16:31 14.39083 -18.18202 19841 ft 332 kts 90°
2026-04-25 16:31 14.39059 -18.15817 19517 ft 330 kts 90°
2026-04-25 16:32 14.39035 -18.13457 19199 ft 328 kts 90°
2026-04-25 16:32 14.39011 -18.11110 18874 ft 326 kts 90°
2026-04-25 16:32 14.38987 -18.08768 18554 ft 324 kts 90°
2026-04-25 16:32 14.38963 -18.06445 18236 ft 322 kts 90°
2026-04-25 16:33 14.38939 -18.04174 17917 ft 320 kts 90°
2026-04-25 16:33 14.38914 -18.01882 17608 ft 319 kts 90°
2026-04-25 16:33 14.38890 -17.99666 17302 ft 317 kts 90°
2026-04-25 16:33 14.38866 -17.97399 16990 ft 315 kts 90°
2026-04-25 16:34 14.38841 -17.95142 16681 ft 313 kts 90°
2026-04-25 16:34 14.38817 -17.92900 16368 ft 311 kts 90°
2026-04-25 16:34 14.38792 -17.90671 16058 ft 310 kts 90°
2026-04-25 16:34 14.38767 -17.88458 15750 ft 308 kts 90°
2026-04-25 16:35 14.38743 -17.86253 15443 ft 307 kts 90°
2026-04-25 16:35 14.38718 -17.84062 15137 ft 305 kts 90°
2026-04-25 16:35 14.38693 -17.81878 14833 ft 303 kts 91°
2026-04-25 16:35 14.38665 -17.79709 14530 ft 302 kts 91°
2026-04-25 16:36 14.38638 -17.77554 14228 ft 300 kts 91°
2026-04-25 16:36 14.38630 -17.76850 14129 ft 300 kts 91°
2026-04-25 16:36 14.38586 -17.73261 13626 ft 297 kts 91°
2026-04-25 16:36 14.38561 -17.71160 13330 ft 296 kts 91°
2026-04-25 16:37 14.38536 -17.69041 13030 ft 295 kts 91°
2026-04-25 16:37 14.38510 -17.66929 12732 ft 293 kts 91°
2026-04-25 16:37 14.38485 -17.64834 12436 ft 292 kts 91°
2026-04-25 16:37 14.38460 -17.62744 12139 ft 290 kts 91°
2026-04-25 16:38 14.38434 -17.60663 11843 ft 289 kts 91°
2026-04-25 16:38 14.38408 -17.58590 11547 ft 288 kts 90°
2026-04-25 16:38 14.38385 -17.56531 11242 ft 287 kts 90°
2026-04-25 16:38 14.38359 -17.54478 10957 ft 285 kts 91°
2026-04-25 16:39 14.38332 -17.52433 10664 ft 284 kts 91°
2026-04-25 16:39 14.38306 -17.50403 10381 ft 283 kts 91°
2026-04-25 16:39 14.38280 -17.48378 10093 ft 281 kts 90°
2026-04-25 16:39 14.38255 -17.46384 9809 ft 280 kts 91°
2026-04-25 16:40 14.38228 -17.44381 9521 ft 279 kts 91°
2026-04-25 16:40 14.38202 -17.42380 9238 ft 278 kts 91°
2026-04-25 16:40 14.38176 -17.40394 8953 ft 277 kts 91°
2026-04-25 16:40 14.38149 -17.38415 8669 ft 275 kts 91°
2026-04-25 16:41 14.38123 -17.36445 8387 ft 274 kts 91°
2026-04-25 16:41 14.38114 -17.35779 8292 ft 274 kts 91°
2026-04-25 16:41 14.38044 -17.30577 7546 ft 271 kts 91°
2026-04-25 16:42 14.38018 -17.28640 7265 ft 270 kts 91°
2026-04-25 16:42 14.37991 -17.26714 6992 ft 269 kts 91°
2026-04-25 16:42 14.37965 -17.24787 6713 ft 268 kts 91°
2026-04-25 16:42 14.37938 -17.22867 6431 ft 267 kts 91°
2026-04-25 16:43 14.37912 -17.20956 6147 ft 266 kts 91°
2026-04-25 16:43 14.37885 -17.19049 5868 ft 265 kts 91°
2026-04-25 16:43 14.37858 -17.17173 5580 ft 265 kts 91°
2026-04-25 16:43 14.37832 -17.15295 5448 ft 258 kts 91°
2026-04-25 16:44 14.37806 -17.13469 5319 ft 251 kts 91°
2026-04-25 16:44 14.37780 -17.11697 5203 ft 244 kts 91°
2026-04-25 16:44 14.37758 -17.09969 5098 ft 238 kts 89°
2026-04-25 16:44 14.38147 -17.08341 4972 ft 236 kts 54°
2026-04-25 16:45 14.39406 -17.07329 4901 ft 233 kts 15°
2026-04-25 16:45 14.41009 -17.07108 4804 ft 234 kts
2026-04-25 16:45 14.42615 -17.07122 4668 ft 230 kts 358°
2026-04-25 16:45 14.44202 -17.07152 4387 ft 225 kts 359°
2026-04-25 16:46 14.45736 -17.07170 4106 ft 220 kts 359°
2026-04-25 16:46 14.47250 -17.07180 3813 ft 215 kts 359°
2026-04-25 16:46 14.48733 -17.07189 3523 ft 211 kts 358°
2026-04-25 16:46 14.49225 -17.07192 3427 ft 210 kts 359°
2026-04-25 16:47 14.51610 -17.07204 2973 ft 202 kts 359°
2026-04-25 16:47 14.53003 -17.07212 2704 ft 199 kts 359°
2026-04-25 16:47 14.54378 -17.07218 2445 ft 195 kts 359°
2026-04-25 16:47 14.55727 -17.07226 2189 ft 192 kts 359°
2026-04-25 16:48 14.57037 -17.07233 1935 ft 183 kts 359°
2026-04-25 16:48 14.58264 -17.07239 1725 ft 168 kts 359°
2026-04-25 16:48 14.59390 -17.07246 1475 ft 156 kts 359°
2026-04-25 16:48 14.60463 -17.07252 1284 ft 154 kts 359°
2026-04-25 16:49 14.61534 -17.07252 1092 ft 154 kts 359°
2026-04-25 16:49 14.62612 -17.07258 875 ft 156 kts 359°
2026-04-25 16:49 14.63697 -17.07263 662 ft 155 kts 359°
2026-04-25 16:49 14.64754 -17.07260 458 ft 152 kts 359°
2026-04-25 16:50 14.65807 -17.07271 272 ft 150 kts 359°
2026-04-25 16:50 14.66742 -17.07279 268 ft 110 kts 359°
2026-04-25 16:50 14.67302 -17.07284 264 ft 56 kts 359°
2026-04-25 16:50 14.67614 -17.07275 261 ft 29 kts 14°
2026-04-25 16:51 14.67749 -17.07222 262 ft 16 kts 27°
2026-04-25 16:51 14.67827 -17.07175 261 ft 9 kts 38°
2026-04-25 16:51 14.67831 -17.07119 263 ft 9 kts 126°
2026-04-25 16:51 14.67816 -17.07106 263 ft 9 kts 148°
2026-04-25 16:52 14.67720 -17.07097 265 ft 8 kts 179°
2026-04-25 16:52 14.67653 -17.07096 265 ft 11 kts 179°
2026-04-25 16:52 14.67568 -17.07093 265 ft 12 kts 169°
2026-04-25 16:52 14.67534 -17.07037 269 ft 9 kts 89°
2026-04-25 16:53 14.67453 -17.06981 270 ft 12 kts 180°
2026-04-25 16:53 14.67374 -17.06980 270 ft 11 kts 178°
2026-04-25 16:53 14.67302 -17.06980 270 ft 10 kts 179°
2026-04-25 16:54 14.67247 -17.06970 270 ft 7 kts 141°
2026-04-25 16:54 14.67219 -17.06928 270 ft 7 kts 122°
2026-04-25 16:54 14.67194 -17.06887 270 ft 6 kts 122°
2026-04-25 16:54 14.67180 -17.06864 270 ft 3 kts 122°
2026-04-25 16:55 14.67178 -17.06860 270 ft 0 kts 122°